Terug naar catalogus

ARIANE 3 DEB

ActiefHEO
NORAD 27025·DEBRIS·🇫🇷 France

Gelanceerd Mar 28, 1986 vanaf Guiana Space Centre

Loading…

Volgende Passages (komende 24 uur)

TLE

VersSource: Space-Track

Epoch: Sep 12, 2026, 05:04 UTC

1 27025U 86026J   26255.21151981 -.00000053  00000-0  10033-2 0  9994
2 27025   6.8632 322.1425 7032255  59.7802 351.1319  2.49770205225522

Volg ARIANE 3 DEB in realtime met AllMySat

Download on the App Store